Location: Karcze
(52.0945°N, 22.4786°E)
Time: 16:29:23
(UTC+00:00)

A-11 Canister half - Pass Details

Date: 04 August 2021
Orbit: 1515 x 1685 km, 47.2° (Epoch: 20 September)

Event Time Altitude Azimuth Distance (km) Brightness Sun altitude
Rises 21:57:07 0° 287° (WNW) 4,916 12.0 -20.4°
Reaches altitude 10° 22:01:25 10° 271° (W) 3,940 11.3 -20.5°
Maximum altitude 22:07:54 20° 231° (SW) 3,246 10.4 -20.6°
Enters shadow 22:10:20 18° 213° (SSW) 3,352 10.3 -20.7°
Drops below altitude 10° 22:14:24 10° 190° (S) 3,938 - -20.8°
Sets 22:18:44 0° 174° (S) 4,912 - -20.8°
